Weather Service Report


100 
ASUS44 KBMX 281810
RWRAL 
             
ALABAMA REGIONAL WEATHER ROUNDUP
NATIONAL WEATHER SERVICE BIRMINGHAM AL
100 PM CDT THU AUG 28 2014

NOTE: "FAIR" INDICATES FEW OR NO CLOUDS BELOW 12,000 FEET
WITH NO SIGNIFICANT WEATHER AND/OR OBSTRUCTIONS TO VISIBILITY.

THE REMARK "TC" DENOTES TEMPERATURE IN DEGREES CELSIUS.

ALZ001>011-014-016>018-020-281900-
NORTH ALABAMA
  
CITY           SKY/WX    TMP DP  RH WIND       PRES   REMARKS
MUSCLE SHOALS  SUNNY     92  63  38 VRB7      30.02F HX  93           
6HR MIN TEMP:  68; 6HR MAX TEMP:  92;                                

HUNTSVILLE     MOSUNNY   91  61  36 VRB3      30.03F HX  91           
6HR MIN TEMP:  70; 6HR MAX TEMP:  93;                                

DECATUR        MOSUNNY   91  63  39 VRB3      30.03  HX  92           
6HR MIN TEMP:  66; 6HR MAX TEMP:  92;                                

HALEYVILLE     FAIR      92  60  34 CALM      30.06F HX  91           
6HR MIN TEMP:  63; 6HR MAX TEMP:  92; 6HR PCP: TRACE;                

GADSDEN        SUNNY     90  61  37 NW6       30.02F                  
6HR MIN TEMP:  64; 6HR MAX TEMP:  91;                                

$$
 
ALZ012-013-022-023-030>036-040>044-281900-
WEST CENTRAL ALABAMA
  
CITY           SKY/WX    TMP DP  RH WIND       PRES   REMARKS
TUSCALOOSA     SUNNY     93  56  28 VRB5      30.01F HX  91           
6HR MIN TEMP:  67; 6HR MAX TEMP:  93;                                

$$
 
ALZ015-024>027-033>036-040>044-281900-
CENTRAL ALABAMA
  
CITY           SKY/WX    TMP DP  RH WIND       PRES   REMARKS
BIRMINGHAM     MOSUNNY   90  58  33 VRB3      30.04F                  
6HR MIN TEMP:  68; 6HR MAX TEMP:  91;                                

MONTGOMERY     MOSUNNY   88  62  41 S6        30.03S                  
6HR MIN TEMP:  67; 6HR MAX TEMP:  90;                                

SHELBY CO ARPT SUNNY     89  59  36 VRB3      30.02F                  
6HR MIN TEMP:  67; 6HR MAX TEMP:  90;                                

MAXWELL AFB    PTSUNNY   89  58  35 N1        30.02F                  
6HR MIN TEMP:  68; 6HR MAX TEMP:  90;                                

GREENVILLE     PTSUNNY   89  61  38 CALM      30.02F                  
6HR MIN TEMP:  65; 6HR MAX TEMP:  91;                                

$$
 
ALZ019-021-028-029-037-038-045>048-281900-
EAST CENTRAL ALABAMA
  
CITY           SKY/WX    TMP DP  RH WIND       PRES   REMARKS
ANNISTON       SUNNY     88  58  36 VRB6      30.03F                  
6HR MIN TEMP:  65; 6HR MAX TEMP:  89;                                

ALEXANDER CITY SUNNY     91  51  25 S6        30.04F                  
6HR MIN TEMP:  71; 6HR MAX TEMP:  91;                                

AUBURN         SUNNY     88  55  33 NE6       30.08F                  
6HR MIN TEMP:  66; 6HR MAX TEMP:  90;                                

$$
 
ALZ051>064-281900-
SOUTHWEST ALABAMA
  
CITY           SKY/WX    TMP DP  RH WIND       PRES   REMARKS
MOBILE         PTSUNNY   88  70  55 SW5       30.01F HX  93           
6HR MIN TEMP:  73; 6HR MAX TEMP:  88;                                

BROOKLEY FIELD PTSUNNY   89  72  56 SE6       30.01F HX  96           
6HR MIN TEMP:  74; 6HR MAX TEMP:  89;                                

EVERGREEN      PTSUNNY   93  59  31 NE5       30.02F HX  92           
6HR MIN TEMP:  66; 6HR MAX TEMP:  93;                                

$$

ALZ049-050-065>069-281900-
SOUTHEAST ALABAMA
  
CITY           SKY/WX    TMP DP  RH WIND       PRES   REMARKS
DOTHAN         PTSUNNY   89  58  34 CALM      30.05F                  
6HR MIN TEMP:  65; 6HR MAX TEMP:  91;                                

OZARK          PTSUNNY   93  60  32 VRB5      30.01F HX  92           
6HR MIN TEMP:  66; 6HR MAX TEMP:  93;                                

TROY           PTSUNNY   89  63  41 S8        30.03F HX  90           
6HR MIN TEMP:  63; 6HR MAX TEMP:  92;                                

EUFAULA        FAIR      94  54  25 CALM      30.00F HX  92           
6HR MIN TEMP:  65; 6HR MAX TEMP:  96;                                

$$

Return to Home page


Western Regional Climate Center, wrcc@dri.edu